Time,TemperatureF,DewpointF,PressureIn,WindDirection,WindDirectionDegrees,WindSpeedMPH,WindSpeedGustMPH,Humidity,HourlyPrecipIn,Conditions,Clouds,dailyrainin,SoftwareType,DateUTC
2013-12-03 00:02:00,38.4,37.4,29.73,East,82,0.0,0.0,96,0.00,,,0.00,Wunderground v.1.15,2013-12-03 06:02:00,
2013-12-03 00:08:00,38.7,37.7,29.73,East,82,0.0,0.0,96,0.00,,,0.00,Wunderground v.1.15,2013-12-03 06:08:00,
2013-12-03 00:13:00,38.8,37.8,29.73,East,82,0.0,0.0,96,0.00,,,0.00,Wunderground v.1.15,2013-12-03 06:13:00,
2013-12-03 00:18:00,38.9,37.9,29.73,East,82,0.0,0.0,96,0.00,,,0.00,Wunderground v.1.15,2013-12-03 06:18:00,
2013-12-03 00:24:00,38.9,37.9,29.73,ESE,112,0.0,0.0,96,0.00,,,0.00,Wunderground v.1.15,2013-12-03 06:24:00,
2013-12-03 00:29:00,39.2,38.2,29.73,ESE,112,0.0,0.0,96,0.00,,,0.00,Wunderground v.1.15,2013-12-03 06:29:00,
2013-12-03 00:34:00,39.5,38.5,29.73,ESE,111,0.0,0.0,96,0.00,,,0.00,Wunderground v.1.15,2013-12-03 06:34:00,
2013-12-03 00:39:00,39.9,38.9,29.73,ESE,112,0.0,0.0,96,0.00,,,0.00,Wunderground v.1.15,2013-12-03 06:39:00,
2013-12-03 00:45:00,40.4,39.4,29.73,ESE,111,0.0,0.0,96,0.00,,,0.00,Wunderground v.1.15,2013-12-03 06:45:00,
2013-12-03 00:50:00,40.6,39.5,29.73,ESE,111,0.0,0.0,96,0.00,,,0.00,Wunderground v.1.15,2013-12-03 06:50:00,
2013-12-03 00:55:00,40.7,39.6,29.73,ESE,111,0.0,0.0,96,0.00,,,0.00,Wunderground v.1.15,2013-12-03 06:55:00,
2013-12-03 01:00:00,40.9,39.8,29.73,ESE,112,0.0,0.0,96,0.00,,,0.00,Wunderground v.1.15,2013-12-03 07:00:00,
2013-12-03 01:06:00,41.1,40.0,29.73,ESE,111,0.0,0.0,96,0.00,,,0.00,Wunderground v.1.15,2013-12-03 07:06:00,
2013-12-03 01:11:00,41.0,39.9,29.73,ESE,111,0.0,0.0,96,0.00,,,0.00,Wunderground v.1.15,2013-12-03 07:11:00,
2013-12-03 01:16:00,41.0,39.9,29.74,ESE,112,0.0,0.0,96,0.00,,,0.00,Wunderground v.1.15,2013-12-03 07:16:00,
2013-12-03 01:21:00,40.9,39.8,29.74,ESE,111,0.0,0.0,96,0.00,,,0.00,Wunderground v.1.15,2013-12-03 07:21:00,
2013-12-03 01:26:00,41.0,39.9,29.74,ESE,112,0.0,0.0,96,0.00,,,0.00,Wunderground v.1.15,2013-12-03 07:26:00,
2013-12-03 01:32:00,40.9,39.8,29.74,ESE,112,0.0,0.0,96,0.00,,,0.00,Wunderground v.1.15,2013-12-03 07:32:00,
2013-12-03 01:37:00,40.6,39.5,29.74,ESE,112,0.0,0.0,96,0.00,,,0.00,Wunderground v.1.15,2013-12-03 07:37:00,
2013-12-03 01:42:00,40.5,39.4,29.74,ESE,112,0.0,0.0,96,0.00,,,0.00,Wunderground v.1.15,2013-12-03 07:42:00,
2013-12-03 01:47:00,40.6,39.5,29.74,ESE,111,0.0,0.0,96,0.00,,,0.00,Wunderground v.1.15,2013-12-03 07:47:00,
2013-12-03 01:52:00,40.4,39.4,29.74,ESE,111,0.0,0.0,96,0.00,,,0.00,Wunderground v.1.15,2013-12-03 07:52:00,
2013-12-03 01:57:00,40.4,39.4,29.74,ESE,111,0.0,0.0,96,0.00,,,0.00,Wunderground v.1.15,2013-12-03 07:57:00,
2013-12-03 02:03:00,40.4,39.4,29.74,ESE,112,0.0,0.0,96,0.00,,,0.00,Wunderground v.1.15,2013-12-03 08:03:00,
2013-12-03 02:08:00,40.6,39.5,29.74,ESE,111,0.0,0.0,96,0.00,,,0.00,Wunderground v.1.15,2013-12-03 08:08:00,
2013-12-03 02:13:00,40.8,39.7,29.75,ESE,111,0.0,0.0,96,0.00,,,0.00,Wunderground v.1.15,2013-12-03 08:13:00,
2013-12-03 02:19:00,41.0,39.9,29.75,ESE,111,0.0,0.0,96,0.00,,,0.00,Wunderground v.1.15,2013-12-03 08:19:00,
2013-12-03 02:24:00,41.2,40.4,29.75,ESE,112,0.0,0.0,97,0.00,,,0.00,Wunderground v.1.15,2013-12-03 08:24:00,
2013-12-03 02:29:00,41.4,40.6,29.75,ESE,111,0.0,0.0,97,0.00,,,0.00,Wunderground v.1.15,2013-12-03 08:29:00,
2013-12-03 02:34:00,41.7,40.9,29.75,ESE,112,0.0,0.0,97,0.00,,,0.00,Wunderground v.1.15,2013-12-03 08:34:00,
2013-12-03 02:40:00,41.8,41.0,29.75,ESE,105,0.0,0.0,97,0.00,,,0.00,Wunderground v.1.15,2013-12-03 08:40:00,
2013-12-03 02:45:00,41.9,40.8,29.75,ESE,105,0.0,0.0,96,0.00,,,0.00,Wunderground v.1.15,2013-12-03 08:45:00,
2013-12-03 02:50:00,42.0,41.2,29.75,ESE,105,0.0,0.0,97,0.00,,,0.00,Wunderground v.1.15,2013-12-03 08:50:00,
2013-12-03 02:55:00,42.2,41.4,29.75,ESE,105,0.0,0.0,97,0.00,,,0.00,Wunderground v.1.15,2013-12-03 08:55:00,
2013-12-03 03:00:00,42.3,41.5,29.75,ESE,106,0.0,0.0,97,0.00,,,0.00,Wunderground v.1.15,2013-12-03 09:00:00,
2013-12-03 03:06:00,42.4,41.6,29.75,ESE,105,0.0,0.0,97,0.00,,,0.00,Wunderground v.1.15,2013-12-03 09:06:00,
2013-12-03 03:11:00,42.5,41.7,29.75,ESE,106,0.0,0.0,97,0.00,,,0.00,Wunderground v.1.15,2013-12-03 09:11:00,
2013-12-03 03:16:00,42.7,41.9,29.75,ESE,105,0.0,0.0,97,0.00,,,0.00,Wunderground v.1.15,2013-12-03 09:16:00,
2013-12-03 03:21:00,42.7,41.9,29.74,ESE,105,0.0,0.0,97,0.00,,,0.00,Wunderground v.1.15,2013-12-03 09:21:00,
2013-12-03 03:27:00,42.8,42.0,29.74,ESE,106,0.0,0.0,97,0.00,,,0.00,Wunderground v.1.15,2013-12-03 09:27:00,
2013-12-03 03:32:00,42.9,42.1,29.74,ESE,105,0.0,0.0,97,0.00,,,0.00,Wunderground v.1.15,2013-12-03 09:32:00,
2013-12-03 03:38:00,43.1,42.3,29.74,ESE,105,0.0,0.0,97,0.00,,,0.00,Wunderground v.1.15,2013-12-03 09:38:00,
2013-12-03 03:43:00,43.4,42.6,29.75,SE,130,0.0,0.0,97,0.00,,,0.00,Wunderground v.1.15,2013-12-03 09:43:00,
2013-12-03 03:48:00,43.7,42.9,29.74,ESE,115,0.0,0.0,97,0.00,,,0.00,Wunderground v.1.15,2013-12-03 09:48:00,
2013-12-03 03:53:00,44.0,43.2,29.75,ESE,115,0.0,0.0,97,0.00,,,0.00,Wunderground v.1.15,2013-12-03 09:53:00,
2013-12-03 03:58:00,44.2,43.4,29.74,SE,142,0.0,1.0,97,0.00,,,0.00,Wunderground v.1.15,2013-12-03 09:58:00,
2013-12-03 04:04:00,44.5,43.7,29.74,SE,127,0.0,2.0,97,0.00,,,0.00,Wunderground v.1.15,2013-12-03 10:04:00,
2013-12-03 04:09:00,44.8,44.0,29.74,ESE,120,1.0,2.0,97,0.00,,,0.00,Wunderground v.1.15,2013-12-03 10:09:00,
2013-12-03 04:14:00,44.9,44.1,29.74,SE,130,0.0,1.0,97,0.00,,,0.00,Wunderground v.1.15,2013-12-03 10:14:00,
2013-12-03 04:19:00,44.9,44.1,29.74,ESE,115,0.0,2.0,97,0.00,,,0.00,Wunderground v.1.15,2013-12-03 10:19:00,
2013-12-03 04:25:00,44.8,44.0,29.74,ESE,117,0.0,1.0,97,0.00,,,0.00,Wunderground v.1.15,2013-12-03 10:25:00,
2013-12-03 04:30:00,44.9,44.1,29.73,ESE,107,1.0,2.0,97,0.00,,,0.00,Wunderground v.1.15,2013-12-03 10:30:00,
2013-12-03 04:35:00,44.9,43.8,29.73,ESE,122,1.0,2.0,96,0.00,,,0.00,Wunderground v.1.15,2013-12-03 10:35:00,
2013-12-03 04:40:00,44.8,43.7,29.73,ESE,121,0.0,0.0,96,0.00,,,0.00,Wunderground v.1.15,2013-12-03 10:40:00,
2013-12-03 04:45:00,44.7,43.6,29.73,ESE,118,0.0,1.0,96,0.00,,,0.00,Wunderground v.1.15,2013-12-03 10:45:00,
2013-12-03 04:51:00,44.8,43.7,29.73,SE,127,0.0,1.0,96,0.00,,,0.00,Wunderground v.1.15,2013-12-03 10:51:00,
2013-12-03 04:56:00,45.0,44.2,29.73,SE,127,0.0,1.0,97,0.00,,,0.00,Wunderground v.1.15,2013-12-03 10:56:00,
2013-12-03 05:01:00,45.1,44.0,29.73,ESE,113,0.0,0.0,96,0.00,,,0.00,Wunderground v.1.15,2013-12-03 11:01:00,
2013-12-03 05:06:00,45.2,44.1,29.73,ESE,108,0.0,0.0,96,0.00,,,0.00,Wunderground v.1.15,2013-12-03 11:06:00,
2013-12-03 05:12:00,45.3,44.2,29.73,ESE,112,0.0,0.0,96,0.00,,,0.00,Wunderground v.1.15,2013-12-03 11:12:00,
2013-12-03 05:17:00,45.3,44.2,29.73,SE,134,0.0,0.0,96,0.00,,,0.00,Wunderground v.1.15,2013-12-03 11:17:00,
2013-12-03 05:22:00,45.4,44.3,29.73,ESE,122,0.0,1.0,96,0.00,,,0.00,Wunderground v.1.15,2013-12-03 11:22:00,
2013-12-03 05:27:00,45.3,44.2,29.73,ESE,120,0.0,1.0,96,0.00,,,0.00,Wunderground v.1.15,2013-12-03 11:27:00,
2013-12-03 05:32:00,45.1,44.0,29.73,ESE,120,0.0,0.0,96,0.00,,,0.00,Wunderground v.1.15,2013-12-03 11:32:00,
2013-12-03 05:38:00,44.8,43.7,29.73,ESE,120,0.0,0.0,96,0.00,,,0.00,Wunderground v.1.15,2013-12-03 11:38:00,
2013-12-03 05:43:00,44.6,43.5,29.74,ESE,120,0.0,0.0,96,0.00,,,0.00,Wunderground v.1.15,2013-12-03 11:43:00,
2013-12-03 05:48:00,44.5,43.4,29.74,ESE,120,0.0,0.0,96,0.00,,,0.00,Wunderground v.1.15,2013-12-03 11:48:00,
2013-12-03 05:53:00,44.4,43.3,29.74,ESE,120,0.0,0.0,96,0.00,,,0.00,Wunderground v.1.15,2013-12-03 11:53:00,
2013-12-03 05:58:00,44.4,43.3,29.74,ESE,120,0.0,0.0,96,0.00,,,0.00,Wunderground v.1.15,2013-12-03 11:58:00,
2013-12-03 06:04:00,44.5,43.4,29.74,ESE,120,0.0,0.0,96,0.00,,,0.00,Wunderground v.1.15,2013-12-03 12:04:00,
2013-12-03 06:09:00,44.8,43.7,29.74,East,91,0.0,0.0,96,0.00,,,0.00,Wunderground v.1.15,2013-12-03 12:09:00,
2013-12-03 06:14:00,45.1,44.0,29.74,East,98,0.0,0.0,96,0.00,,,0.00,Wunderground v.1.15,2013-12-03 12:14:00,
2013-12-03 06:19:00,45.2,44.1,29.73,ESE,116,0.0,1.0,96,0.00,,,0.00,Wunderground v.1.15,2013-12-03 12:19:00,
2013-12-03 06:25:00,45.0,43.9,29.73,ESE,123,0.0,0.0,96,0.00,,,0.00,Wunderground v.1.15,2013-12-03 12:25:00,
2013-12-03 06:30:00,44.7,43.6,29.73,ESE,122,0.0,0.0,96,0.00,,,0.00,Wunderground v.1.15,2013-12-03 12:30:00,
2013-12-03 06:35:00,44.3,43.2,29.73,ESE,123,0.0,0.0,96,0.00,,,0.00,Wunderground v.1.15,2013-12-03 12:35:00,
2013-12-03 06:40:00,44.2,43.1,29.73,ESE,123,0.0,0.0,96,0.00,,,0.00,Wunderground v.1.15,2013-12-03 12:40:00,
2013-12-03 06:45:00,44.3,43.2,29.74,East,96,0.0,0.0,96,0.00,,,0.00,Wunderground v.1.15,2013-12-03 12:45:00,
2013-12-03 06:50:00,44.7,43.9,29.74,SE,141,0.0,0.0,97,0.00,,,0.00,Wunderground v.1.15,2013-12-03 12:50:00,
2013-12-03 06:56:00,45.2,44.4,29.74,ESE,110,0.0,0.0,97,0.00,,,0.00,Wunderground v.1.15,2013-12-03 12:56:00,
2013-12-03 07:01:00,45.6,44.8,29.74,ESE,108,0.0,0.0,97,0.00,,,0.00,Wunderground v.1.15,2013-12-03 13:01:00,
2013-12-03 07:06:00,45.7,44.9,29.74,ENE,75,0.0,2.0,97,0.00,,,0.00,Wunderground v.1.15,2013-12-03 13:06:00,
2013-12-03 07:12:00,45.6,44.8,29.73,SE,125,1.0,2.0,97,0.00,,,0.00,Wunderground v.1.15,2013-12-03 13:12:00,
2013-12-03 07:17:00,45.5,44.4,29.74,SSE,151,1.0,2.0,96,0.00,,,0.00,Wunderground v.1.15,2013-12-03 13:17:00,
2013-12-03 07:22:00,45.2,44.1,29.74,ESE,119,0.0,1.0,96,0.00,,,0.00,Wunderground v.1.15,2013-12-03 13:22:00,
2013-12-03 07:27:00,45.1,44.0,29.74,SE,131,0.0,2.0,96,0.00,,,0.00,Wunderground v.1.15,2013-12-03 13:27:00,
2013-12-03 07:32:00,45.3,44.5,29.75,SW,225,0.0,0.0,97,0.00,,,0.00,Wunderground v.1.15,2013-12-03 13:32:00,
2013-12-03 07:37:00,45.4,44.6,29.75,WSW,248,0.0,3.0,97,0.00,,,0.00,Wunderground v.1.15,2013-12-03 13:37:00,
2013-12-03 07:42:00,45.7,44.9,29.76,West,264,0.0,0.0,97,0.00,,,0.00,Wunderground v.1.15,2013-12-03 13:42:00,
2013-12-03 07:48:00,45.9,45.1,29.76,SE,146,0.0,1.0,97,0.00,,,0.00,Wunderground v.1.15,2013-12-03 13:48:00,
2013-12-03 07:53:00,46.3,45.5,29.76,South,179,0.0,1.0,97,0.00,,,0.00,Wunderground v.1.15,2013-12-03 13:53:00,
2013-12-03 07:58:00,46.8,46.0,29.76,SSW,194,1.0,2.0,97,0.00,,,0.00,Wunderground v.1.15,2013-12-03 13:58:00,
2013-12-03 08:04:00,47.3,46.5,29.76,SE,142,1.0,2.0,97,0.00,,,0.00,Wunderground v.1.15,2013-12-03 14:04:00,
2013-12-03 08:09:00,47.5,46.7,29.76,ESE,103,1.0,3.0,97,0.00,,,0.00,Wunderground v.1.15,2013-12-03 14:09:00,
2013-12-03 08:14:00,47.7,46.9,29.77,SE,134,1.0,3.0,97,0.00,,,0.00,Wunderground v.1.15,2013-12-03 14:14:00,
2013-12-03 08:19:00,47.9,47.1,29.77,ESE,104,1.0,3.0,97,0.00,,,0.00,Wunderground v.1.15,2013-12-03 14:19:00,
2013-12-03 08:24:00,48.1,47.3,29.77,SE,139,1.0,2.0,97,0.00,,,0.00,Wunderground v.1.15,2013-12-03 14:24:00,
2013-12-03 08:29:00,48.3,47.5,29.76,ESE,123,1.0,4.0,97,0.00,,,0.00,Wunderground v.1.15,2013-12-03 14:29:00,
2013-12-03 08:35:00,48.7,47.9,29.77,SE,135,1.0,1.0,97,0.00,,,0.00,Wunderground v.1.15,2013-12-03 14:35:00,
2013-12-03 08:40:00,48.9,48.1,29.77,West,274,1.0,1.0,97,0.00,,,0.00,Wunderground v.1.15,2013-12-03 14:40:00,
2013-12-03 08:45:00,49.1,48.3,29.77,SE,135,1.0,3.0,97,0.00,,,0.00,Wunderground v.1.15,2013-12-03 14:45:00,
2013-12-03 08:50:00,49.4,48.6,29.77,South,186,2.0,2.0,97,0.00,,,0.00,Wunderground v.1.15,2013-12-03 14:50:00,
2013-12-03 08:55:00,49.7,48.9,29.77,SE,134,2.0,2.0,97,0.00,,,0.00,Wunderground v.1.15,2013-12-03 14:55:00,
2013-12-03 09:00:00,49.9,49.1,29.77,SE,132,1.0,2.0,97,0.00,,,0.00,Wunderground v.1.15,2013-12-03 15:00:00,
2013-12-03 09:06:00,50.3,49.5,29.77,SW,219,1.0,3.0,97,0.00,,,0.00,Wunderground v.1.15,2013-12-03 15:06:00,
2013-12-03 09:11:00,50.5,49.7,29.77,South,181,1.0,1.0,97,0.00,,,0.00,Wunderground v.1.15,2013-12-03 15:11:00,
2013-12-03 09:16:00,50.8,50.0,29.77,SSE,166,1.0,1.0,97,0.00,,,0.00,Wunderground v.1.15,2013-12-03 15:16:00,
2013-12-03 09:21:00,51.0,50.2,29.77,SSW,207,1.0,1.0,97,0.00,,,0.00,Wunderground v.1.15,2013-12-03 15:21:00,
2013-12-03 09:26:00,51.3,50.5,29.77,East,98,1.0,1.0,97,0.00,,,0.00,Wunderground v.1.15,2013-12-03 15:26:00,
2013-12-03 09:31:00,51.6,50.5,29.77,SE,141,1.0,1.0,96,0.00,,,0.00,Wunderground v.1.15,2013-12-03 15:31:00,
2013-12-03 09:36:00,52.0,50.9,29.76,SSE,156,0.0,3.0,96,0.00,,,0.00,Wunderground v.1.15,2013-12-03 15:36:00,
2013-12-03 09:41:00,52.1,51.0,29.76,SSE,150,1.0,1.0,96,0.00,,,0.00,Wunderground v.1.15,2013-12-03 15:41:00,
2013-12-03 09:47:00,52.3,51.2,29.77,South,170,2.0,5.0,96,0.00,,,0.00,Wunderground v.1.15,2013-12-03 15:47:00,
2013-12-03 09:53:00,52.6,51.5,29.77,SSW,203,1.0,3.0,96,0.00,,,0.00,Wunderground v.1.15,2013-12-03 15:53:00,
2013-12-03 09:58:00,52.9,51.5,29.77,South,177,1.0,3.0,95,0.00,,,0.00,Wunderground v.1.15,2013-12-03 15:58:00,
2013-12-03 10:03:00,52.9,51.5,29.77,South,187,1.0,3.0,95,0.00,,,0.00,Wunderground v.1.15,2013-12-03 16:03:00,
2013-12-03 10:09:00,53.0,51.6,29.77,SE,132,2.0,3.0,95,0.00,,,0.00,Wunderground v.1.15,2013-12-03 16:09:00,
2013-12-03 10:14:00,53.2,51.8,29.77,SE,134,1.0,6.0,95,0.00,,,0.00,Wunderground v.1.15,2013-12-03 16:14:00,
2013-12-03 10:19:00,53.3,51.9,29.77,WSW,238,1.0,6.0,95,0.00,,,0.00,Wunderground v.1.15,2013-12-03 16:19:00,
2013-12-03 10:24:00,53.5,52.1,29.77,SSW,207,2.0,3.0,95,0.00,,,0.00,Wunderground v.1.15,2013-12-03 16:24:00,
2013-12-03 10:29:00,53.6,51.9,29.77,SE,124,2.0,4.0,94,0.00,,,0.00,Wunderground v.1.15,2013-12-03 16:29:00,
2013-12-03 10:35:00,53.7,52.0,29.76,SSE,153,2.0,4.0,94,0.00,,,0.00,Wunderground v.1.15,2013-12-03 16:35:00,
2013-12-03 10:40:00,53.7,52.0,29.76,East,89,1.0,3.0,94,0.00,,,0.00,Wunderground v.1.15,2013-12-03 16:40:00,
2013-12-03 10:45:00,53.8,52.1,29.76,South,172,1.0,3.0,94,0.00,,,0.00,Wunderground v.1.15,2013-12-03 16:45:00,
2013-12-03 10:51:00,53.9,52.2,29.76,SSW,194,1.0,2.0,94,0.00,,,0.00,Wunderground v.1.15,2013-12-03 16:51:00,
2013-12-03 10:56:00,54.0,52.3,29.76,SE,141,1.0,2.0,94,0.00,,,0.00,Wunderground v.1.15,2013-12-03 16:56:00,
2013-12-03 11:01:00,54.2,52.5,29.75,SSE,158,0.0,3.0,94,0.00,,,0.00,Wunderground v.1.15,2013-12-03 17:01:00,
2013-12-03 11:06:00,54.3,52.3,29.75,SSW,205,1.0,4.0,93,0.00,,,0.00,Wunderground v.1.15,2013-12-03 17:06:00,
2013-12-03 11:12:00,54.5,52.5,29.75,East,100,2.0,5.0,93,0.00,,,0.00,Wunderground v.1.15,2013-12-03 17:12:00,
2013-12-03 11:17:00,54.6,52.6,29.75,SW,216,1.0,5.0,93,0.00,,,0.00,Wunderground v.1.15,2013-12-03 17:17:00,
2013-12-03 11:22:00,54.7,52.7,29.75,WSW,238,1.0,1.0,93,0.00,,,0.00,Wunderground v.1.15,2013-12-03 17:22:00,
2013-12-03 11:27:00,54.8,52.5,29.74,East,84,2.0,5.0,92,0.00,,,0.00,Wunderground v.1.15,2013-12-03 17:27:00,
2013-12-03 11:32:00,54.8,52.5,29.74,West,271,3.0,3.0,92,0.00,,,0.00,Wunderground v.1.15,2013-12-03 17:32:00,
2013-12-03 11:37:00,55.1,52.8,29.74,SW,230,2.0,5.0,92,0.00,,,0.00,Wunderground v.1.15,2013-12-03 17:37:00,
2013-12-03 11:42:00,55.2,52.6,29.74,SSW,208,2.0,3.0,91,0.00,,,0.00,Wunderground v.1.15,2013-12-03 17:42:00,
2013-12-03 11:48:00,55.4,52.8,29.73,South,169,2.0,4.0,91,0.00,,,0.00,Wunderground v.1.15,2013-12-03 17:48:00,
2013-12-03 11:53:00,55.3,52.7,29.73,WSW,248,2.0,4.0,91,0.00,,,0.00,Wunderground v.1.15,2013-12-03 17:53:00,
2013-12-03 11:58:00,55.3,52.4,29.73,WSW,245,2.0,4.0,90,0.00,,,0.00,Wunderground v.1.15,2013-12-03 17:58:00,
2013-12-03 12:03:00,55.2,52.6,29.73,WNW,294,2.0,3.0,91,0.00,,,0.00,Wunderground v.1.15,2013-12-03 18:03:00,
2013-12-03 12:09:00,55.3,52.7,29.73,SW,230,2.0,3.0,91,0.00,,,0.00,Wunderground v.1.15,2013-12-03 18:09:00,
2013-12-03 12:14:00,55.6,53.0,29.72,WNW,290,1.0,2.0,91,0.00,,,0.00,Wunderground v.1.15,2013-12-03 18:14:00,
2013-12-03 12:20:00,55.9,53.0,29.73,SSE,152,1.0,3.0,90,0.00,,,0.00,Wunderground v.1.15,2013-12-03 18:20:00,
2013-12-03 12:25:00,56.1,53.2,29.72,NW,306,1.0,4.0,90,0.00,,,0.00,Wunderground v.1.15,2013-12-03 18:25:00,
2013-12-03 12:30:00,56.3,53.1,29.73,South,169,1.0,6.0,89,0.00,,,0.00,Wunderground v.1.15,2013-12-03 18:30:00,
2013-12-03 12:35:00,56.3,52.8,29.73,SSE,148,2.0,6.0,88,0.00,,,0.00,Wunderground v.1.15,2013-12-03 18:35:00,
2013-12-03 12:40:00,56.2,52.7,29.73,South,170,2.0,2.0,88,0.00,,,0.00,Wunderground v.1.15,2013-12-03 18:40:00,
2013-12-03 12:45:00,56.3,52.8,29.72,West,280,2.0,4.0,88,0.00,,,0.00,Wunderground v.1.15,2013-12-03 18:45:00,
2013-12-03 12:51:00,56.4,52.9,29.72,South,186,2.0,5.0,88,0.00,,,0.00,Wunderground v.1.15,2013-12-03 18:51:00,
2013-12-03 12:56:00,56.6,53.1,29.72,West,260,2.0,5.0,88,0.00,,,0.00,Wunderground v.1.15,2013-12-03 18:56:00,
2013-12-03 13:02:00,56.7,52.9,29.73,SSW,197,1.0,3.0,87,0.00,,,0.00,Wunderground v.1.15,2013-12-03 19:02:00,
2013-12-03 13:07:00,56.8,53.0,29.72,South,190,1.0,3.0,87,0.00,,,0.00,Wunderground v.1.15,2013-12-03 19:07:00,
2013-12-03 13:12:00,56.8,52.7,29.72,WSW,257,2.0,3.0,86,0.00,,,0.00,Wunderground v.1.15,2013-12-03 19:12:00,
2013-12-03 13:17:00,56.7,52.9,29.73,WSW,253,1.0,3.0,87,0.00,,,0.00,Wunderground v.1.15,2013-12-03 19:17:00,
2013-12-03 13:23:00,56.7,52.9,29.72,West,281,1.0,3.0,87,0.00,,,0.00,Wunderground v.1.15,2013-12-03 19:23:00,
2013-12-03 13:29:00,56.6,52.8,29.72,SW,236,2.0,3.0,87,0.00,,,0.00,Wunderground v.1.15,2013-12-03 19:29:00,
2013-12-03 13:34:00,56.6,52.8,29.72,ESE,121,1.0,2.0,87,0.00,,,0.00,Wunderground v.1.15,2013-12-03 19:34:00,
2013-12-03 13:39:00,56.8,53.0,29.72,SE,126,1.0,3.0,87,0.00,,,0.00,Wunderground v.1.15,2013-12-03 19:39:00,
2013-12-03 13:44:00,57.1,53.3,29.72,SW,214,1.0,2.0,87,0.00,,,0.00,Wunderground v.1.15,2013-12-03 19:44:00,
2013-12-03 13:49:00,57.3,53.1,29.71,ENE,72,1.0,3.0,86,0.00,,,0.00,Wunderground v.1.15,2013-12-03 19:49:00,
2013-12-03 13:54:00,57.6,53.4,29.71,SSW,212,1.0,2.0,86,0.00,,,0.00,Wunderground v.1.15,2013-12-03 19:54:00,
2013-12-03 13:59:00,57.8,53.6,29.71,SSE,153,1.0,6.0,86,0.00,,,0.00,Wunderground v.1.15,2013-12-03 19:59:00,
2013-12-03 14:05:00,58.0,53.5,29.71,WSW,242,2.0,5.0,85,0.00,,,0.00,Wunderground v.1.15,2013-12-03 20:05:00,
2013-12-03 14:11:00,58.3,53.5,29.71,SSE,166,2.0,3.0,84,0.00,,,0.00,Wunderground v.1.15,2013-12-03 20:11:00,
2013-12-03 14:16:00,58.4,53.3,29.71,SSE,152,2.0,3.0,83,0.00,,,0.00,Wunderground v.1.15,2013-12-03 20:16:00,
2013-12-03 14:21:00,58.3,52.8,29.71,SSW,212,2.0,2.0,82,0.00,,,0.00,Wunderground v.1.15,2013-12-03 20:21:00,
2013-12-03 14:26:00,58.4,52.9,29.71,SSW,205,1.0,3.0,82,0.00,,,0.00,Wunderground v.1.15,2013-12-03 20:26:00,
2013-12-03 14:31:00,58.6,53.1,29.71,SW,214,1.0,1.0,82,0.00,,,0.00,Wunderground v.1.15,2013-12-03 20:31:00,
2013-12-03 14:36:00,58.9,53.4,29.71,SSE,155,1.0,1.0,82,0.00,,,0.00,Wunderground v.1.15,2013-12-03 20:36:00,
2013-12-03 14:41:00,59.3,53.5,29.71,SSW,197,1.0,1.0,81,0.00,,,0.00,Wunderground v.1.15,2013-12-03 20:41:00,
2013-12-03 14:46:00,59.6,53.4,29.71,WSW,248,2.0,4.0,80,0.00,,,0.00,Wunderground v.1.15,2013-12-03 20:46:00,
2013-12-03 14:51:00,59.9,53.4,29.71,SW,221,2.0,2.0,79,0.00,,,0.00,Wunderground v.1.15,2013-12-03 20:51:00,
2013-12-03 14:56:00,60.2,53.3,29.71,SE,128,2.0,2.0,78,0.00,,,0.00,Wunderground v.1.15,2013-12-03 20:56:00,
2013-12-03 15:02:00,60.5,53.6,29.71,SSE,158,2.0,5.0,78,0.00,,,0.00,Wunderground v.1.15,2013-12-03 21:02:00,
2013-12-03 15:07:00,60.5,53.3,29.72,South,179,2.0,5.0,77,0.00,,,0.00,Wunderground v.1.15,2013-12-03 21:07:00,
2013-12-03 15:12:00,60.7,53.4,29.71,ESE,117,2.0,3.0,77,0.00,,,0.00,Wunderground v.1.15,2013-12-03 21:12:00,
2013-12-03 15:17:00,60.6,53.3,29.72,ESE,120,2.0,6.0,77,0.00,,,0.00,Wunderground v.1.15,2013-12-03 21:17:00,
2013-12-03 15:22:00,60.4,53.2,29.71,SE,141,2.0,2.0,77,0.00,,,0.00,Wunderground v.1.15,2013-12-03 21:22:00,
2013-12-03 15:27:00,60.3,53.1,29.71,East,82,1.0,2.0,77,0.00,,,0.00,Wunderground v.1.15,2013-12-03 21:27:00,
2013-12-03 15:32:00,60.0,52.8,29.72,SW,225,1.0,2.0,77,0.00,,,0.00,Wunderground v.1.15,2013-12-03 21:32:00,
2013-12-03 15:37:00,59.4,52.5,29.72,SE,129,1.0,2.0,78,0.00,,,0.00,Wunderground v.1.15,2013-12-03 21:37:00,
2013-12-03 15:42:00,58.8,52.3,29.72,SE,124,1.0,1.0,79,0.00,,,0.00,Wunderground v.1.15,2013-12-03 21:42:00,
2013-12-03 15:47:00,58.3,52.2,29.72,East,80,1.0,1.0,80,0.00,,,0.00,Wunderground v.1.15,2013-12-03 21:47:00,
2013-12-03 15:52:00,57.7,51.6,29.72,SE,128,0.0,0.0,80,0.00,,,0.00,Wunderground v.1.15,2013-12-03 21:52:00,
2013-12-03 15:58:00,57.0,51.2,29.71,ESE,108,0.0,2.0,81,0.00,,,0.00,Wunderground v.1.15,2013-12-03 21:58:00,
2013-12-03 16:03:00,56.5,51.1,29.71,ENE,76,0.0,0.0,82,0.00,,,0.00,Wunderground v.1.15,2013-12-03 22:03:00,
2013-12-03 16:08:00,56.2,51.1,29.72,SSE,152,0.0,1.0,83,0.00,,,0.00,Wunderground v.1.15,2013-12-03 22:08:00,
2013-12-03 16:13:00,55.8,51.0,29.71,ESE,117,1.0,2.0,84,0.00,,,0.00,Wunderground v.1.15,2013-12-03 22:13:00,
2013-12-03 16:18:00,55.2,50.8,29.71,ESE,112,1.0,2.0,85,0.00,,,0.00,Wunderground v.1.15,2013-12-03 22:18:00,
2013-12-03 16:23:00,54.7,50.6,29.71,ESE,120,0.0,2.0,86,0.00,,,0.00,Wunderground v.1.15,2013-12-03 22:23:00,
2013-12-03 16:28:00,54.3,50.5,29.70,SSE,152,1.0,2.0,87,0.00,,,0.00,Wunderground v.1.15,2013-12-03 22:28:00,
2013-12-03 16:33:00,54.0,50.2,29.71,SE,143,1.0,2.0,87,0.00,,,0.00,Wunderground v.1.15,2013-12-03 22:33:00,
2013-12-03 16:38:00,53.5,50.0,29.71,WSW,249,0.0,2.0,88,0.00,,,0.00,Wunderground v.1.15,2013-12-03 22:38:00,
2013-12-03 16:43:00,53.0,49.5,29.72,SSW,201,0.0,0.0,88,0.00,,,0.00,Wunderground v.1.15,2013-12-03 22:43:00,
2013-12-03 16:49:00,52.2,48.8,29.72,ESE,117,0.0,0.0,88,0.00,,,0.00,Wunderground v.1.15,2013-12-03 22:49:00,
2013-12-03 16:54:00,51.5,48.4,29.72,ESE,117,0.0,0.0,89,0.00,,,0.00,Wunderground v.1.15,2013-12-03 22:54:00,
2013-12-03 16:59:00,51.0,48.2,29.71,ESE,117,0.0,0.0,90,0.00,,,0.00,Wunderground v.1.15,2013-12-03 22:59:00,
2013-12-03 17:04:00,50.7,48.2,29.71,ESE,121,0.0,0.0,91,0.00,,,0.00,Wunderground v.1.15,2013-12-03 23:04:00,
2013-12-03 17:09:00,50.2,47.7,29.71,ESE,121,0.0,0.0,91,0.00,,,0.00,Wunderground v.1.15,2013-12-03 23:09:00,
2013-12-03 17:14:00,49.7,47.2,29.71,ESE,122,0.0,0.0,91,0.00,,,0.00,Wunderground v.1.15,2013-12-03 23:14:00,
2013-12-03 17:19:00,49.2,47.0,29.71,ESE,122,0.0,0.0,92,0.00,,,0.00,Wunderground v.1.15,2013-12-03 23:19:00,
2013-12-03 17:25:00,49.1,47.2,29.71,South,186,0.0,1.0,93,0.00,,,0.00,Wunderground v.1.15,2013-12-03 23:25:00,
2013-12-03 17:30:00,48.9,47.0,29.70,SE,145,0.0,0.0,93,0.00,,,0.00,Wunderground v.1.15,2013-12-03 23:30:00,
2013-12-03 17:35:00,48.8,46.9,29.70,SE,127,0.0,0.0,93,0.00,,,0.00,Wunderground v.1.15,2013-12-03 23:35:00,
2013-12-03 17:41:00,48.5,46.9,29.70,SW,232,0.0,0.0,94,0.00,,,0.00,Wunderground v.1.15,2013-12-03 23:41:00,
2013-12-03 17:46:00,48.7,47.3,29.71,West,263,0.0,1.0,95,0.00,,,0.00,Wunderground v.1.15,2013-12-03 23:46:00,
2013-12-03 17:52:00,48.5,46.9,29.71,SW,224,0.0,0.0,94,0.00,,,0.00,Wunderground v.1.15,2013-12-03 23:52:00,
2013-12-03 17:57:00,48.2,46.6,29.71,WSW,253,0.0,0.0,94,0.00,,,0.00,Wunderground v.1.15,2013-12-03 23:57:00,
2013-12-03 18:03:00,48.1,46.7,29.71,WNW,282,0.0,0.0,95,0.00,,,0.00,Wunderground v.1.15,2013-12-04 00:03:00,
2013-12-03 18:08:00,47.9,46.5,29.72,WNW,283,0.0,0.0,95,0.00,,,0.00,Wunderground v.1.15,2013-12-04 00:08:00,
2013-12-03 18:13:00,47.7,46.3,29.72,WNW,283,0.0,0.0,95,0.00,,,0.00,Wunderground v.1.15,2013-12-04 00:13:00,
2013-12-03 18:18:00,47.7,46.3,29.72,WNW,282,0.0,0.0,95,0.00,,,0.00,Wunderground v.1.15,2013-12-04 00:18:00,
2013-12-03 18:23:00,47.5,46.1,29.72,WNW,283,0.0,0.0,95,0.00,,,0.00,Wunderground v.1.15,2013-12-04 00:23:00,
2013-12-03 18:28:00,47.5,46.1,29.72,East,86,0.0,0.0,95,0.00,,,0.00,Wunderground v.1.15,2013-12-04 00:28:00,
2013-12-03 18:34:00,47.6,46.2,29.72,East,85,0.0,1.0,95,0.00,,,0.00,Wunderground v.1.15,2013-12-04 00:34:00,
2013-12-03 18:39:00,47.3,45.9,29.72,East,86,1.0,2.0,95,0.00,,,0.00,Wunderground v.1.15,2013-12-04 00:39:00,
2013-12-03 18:44:00,47.0,45.6,29.72,East,89,0.0,1.0,95,0.00,,,0.00,Wunderground v.1.15,2013-12-04 00:44:00,
2013-12-03 18:49:00,47.1,45.7,29.72,East,96,0.0,1.0,95,0.00,,,0.00,Wunderground v.1.15,2013-12-04 00:49:00,
2013-12-03 18:54:00,47.1,45.7,29.72,SE,131,0.0,0.0,95,0.00,,,0.00,Wunderground v.1.15,2013-12-04 00:54:00,
2013-12-03 18:59:00,47.0,45.9,29.72,SE,146,0.0,0.0,96,0.00,,,0.00,Wunderground v.1.15,2013-12-04 00:59:00,
2013-12-03 19:05:00,46.6,45.2,29.72,SSE,150,0.0,0.0,95,0.00,,,0.00,Wunderground v.1.15,2013-12-04 01:05:00,
2013-12-03 19:10:00,46.5,45.4,29.73,SE,138,0.0,0.0,96,0.00,,,0.00,Wunderground v.1.15,2013-12-04 01:10:00,
2013-12-03 19:15:00,46.3,45.2,29.73,SE,134,0.0,0.0,96,0.00,,,0.00,Wunderground v.1.15,2013-12-04 01:15:00,
2013-12-03 19:20:00,46.1,45.0,29.73,SE,134,0.0,0.0,96,0.00,,,0.00,Wunderground v.1.15,2013-12-04 01:20:00,
2013-12-03 19:25:00,46.2,45.1,29.73,SE,134,0.0,0.0,96,0.00,,,0.00,Wunderground v.1.15,2013-12-04 01:25:00,
2013-12-03 19:31:00,46.1,45.0,29.72,SE,134,0.0,0.0,96,0.00,,,0.00,Wunderground v.1.15,2013-12-04 01:31:00,
2013-12-03 19:36:00,46.1,45.0,29.73,ESE,113,0.0,0.0,96,0.00,,,0.00,Wunderground v.1.15,2013-12-04 01:36:00,
2013-12-03 19:41:00,46.2,45.1,29.73,SE,137,0.0,0.0,96,0.00,,,0.00,Wunderground v.1.15,2013-12-04 01:41:00,
2013-12-03 19:46:00,46.3,45.2,29.74,SE,125,0.0,0.0,96,0.00,,,0.00,Wunderground v.1.15,2013-12-04 01:46:00,
2013-12-03 19:52:00,46.1,45.0,29.74,SSE,159,0.0,0.0,96,0.00,,,0.00,Wunderground v.1.15,2013-12-04 01:52:00,
2013-12-03 19:57:00,46.2,45.1,29.74,SSE,151,0.0,0.0,96,0.00,,,0.00,Wunderground v.1.15,2013-12-04 01:57:00,
2013-12-03 20:02:00,46.3,45.2,29.74,SE,130,0.0,0.0,96,0.00,,,0.00,Wunderground v.1.15,2013-12-04 02:02:00,
2013-12-03 20:07:00,46.2,45.1,29.74,SE,129,0.0,0.0,96,0.00,,,0.00,Wunderground v.1.15,2013-12-04 02:07:00,
2013-12-03 20:13:00,46.1,45.0,29.74,SE,130,0.0,0.0,96,0.00,,,0.00,Wunderground v.1.15,2013-12-04 02:13:00,
2013-12-03 20:18:00,46.0,44.9,29.74,SE,130,0.0,0.0,96,0.00,,,0.00,Wunderground v.1.15,2013-12-04 02:18:00,
2013-12-03 20:23:00,45.7,44.6,29.73,SE,130,0.0,0.0,96,0.00,,,0.00,Wunderground v.1.15,2013-12-04 02:23:00,
2013-12-03 20:28:00,45.5,44.4,29.73,East,98,0.0,0.0,96,0.00,,,0.00,Wunderground v.1.15,2013-12-04 02:28:00,
2013-12-03 20:33:00,45.6,44.5,29.73,East,98,0.0,0.0,96,0.00,,,0.00,Wunderground v.1.15,2013-12-04 02:33:00,
2013-12-03 20:38:00,45.8,44.7,29.74,SE,134,0.0,1.0,96,0.00,,,0.00,Wunderground v.1.15,2013-12-04 02:38:00,
2013-12-03 20:44:00,45.9,44.8,29.74,SE,124,0.0,1.0,96,0.00,,,0.00,Wunderground v.1.15,2013-12-04 02:44:00,
2013-12-03 20:49:00,45.9,44.8,29.74,SE,126,0.0,1.0,96,0.00,,,0.00,Wunderground v.1.15,2013-12-04 02:49:00,
2013-12-03 20:54:00,46.0,44.9,29.74,ESE,118,0.0,0.0,96,0.00,,,0.00,Wunderground v.1.15,2013-12-04 02:54:00,
2013-12-03 20:59:00,45.7,44.6,29.74,ESE,118,0.0,0.0,96,0.00,,,0.00,Wunderground v.1.15,2013-12-04 02:59:00,
2013-12-03 21:05:00,45.5,44.4,29.75,ESE,119,0.0,0.0,96,0.00,,,0.00,Wunderground v.1.15,2013-12-04 03:05:00,
2013-12-03 21:10:00,45.3,44.2,29.75,ESE,118,0.0,0.0,96,0.00,,,0.00,Wunderground v.1.15,2013-12-04 03:10:00,
2013-12-03 21:15:00,45.2,44.1,29.75,ESE,119,0.0,0.0,96,0.00,,,0.00,Wunderground v.1.15,2013-12-04 03:15:00,
2013-12-03 21:21:00,45.1,44.0,29.74,ENE,71,0.0,0.0,96,0.00,,,0.00,Wunderground v.1.15,2013-12-04 03:21:00,
2013-12-03 21:26:00,45.2,44.1,29.74,East,83,0.0,1.0,96,0.00,,,0.00,Wunderground v.1.15,2013-12-04 03:26:00,
2013-12-03 21:31:00,44.9,43.8,29.74,East,87,0.0,0.0,96,0.00,,,0.00,Wunderground v.1.15,2013-12-04 03:31:00,
2013-12-03 21:36:00,44.5,43.4,29.73,ESE,119,0.0,0.0,96,0.00,,,0.00,Wunderground v.1.15,2013-12-04 03:36:00,
2013-12-03 21:41:00,44.5,43.4,29.74,East,84,0.0,3.0,96,0.00,,,0.00,Wunderground v.1.15,2013-12-04 03:41:00,
2013-12-03 21:47:00,44.6,43.5,29.74,SE,134,0.0,3.0,96,0.00,,,0.00,Wunderground v.1.15,2013-12-04 03:47:00,
2013-12-03 21:52:00,45.1,44.3,29.74,East,84,0.0,1.0,97,0.00,,,0.00,Wunderground v.1.15,2013-12-04 03:52:00,
2013-12-03 21:57:00,45.1,44.3,29.74,SE,124,0.0,1.0,97,0.00,,,0.00,Wunderground v.1.15,2013-12-04 03:57:00,
2013-12-03 22:03:00,45.0,44.2,29.73,South,170,0.0,0.0,97,0.00,,,0.00,Wunderground v.1.15,2013-12-04 04:03:00,
2013-12-03 22:09:00,45.2,44.4,29.74,West,263,0.0,1.0,97,0.00,,,0.00,Wunderground v.1.15,2013-12-04 04:09:00,
2013-12-03 22:15:00,45.4,44.6,29.74,SSW,205,0.0,0.0,97,0.00,,,0.00,Wunderground v.1.15,2013-12-04 04:15:00,
2013-12-03 22:20:00,45.6,44.8,29.74,ESE,123,0.0,0.0,97,0.00,,,0.00,Wunderground v.1.15,2013-12-04 04:20:00,
2013-12-03 22:25:00,45.4,44.6,29.74,ENE,58,0.0,1.0,97,0.00,,,0.00,Wunderground v.1.15,2013-12-04 04:25:00,
2013-12-03 22:30:00,45.4,44.6,29.74,West,276,0.0,0.0,97,0.00,,,0.00,Wunderground v.1.15,2013-12-04 04:30:00,
2013-12-03 22:36:00,45.8,45.0,29.74,SE,125,0.0,2.0,97,0.00,,,0.00,Wunderground v.1.15,2013-12-04 04:36:00,
2013-12-03 22:41:00,45.8,45.0,29.74,SE,133,0.0,0.0,97,0.00,,,0.00,Wunderground v.1.15,2013-12-04 04:41:00,
2013-12-03 22:46:00,45.8,45.0,29.74,SSE,153,0.0,2.0,97,0.00,,,0.00,Wunderground v.1.15,2013-12-04 04:46:00,
2013-12-03 22:51:00,45.6,44.8,29.73,ESE,103,0.0,0.0,97,0.00,,,0.00,Wunderground v.1.15,2013-12-04 04:51:00,
2013-12-03 22:56:00,45.9,45.1,29.73,SE,141,0.0,2.0,97,0.00,,,0.00,Wunderground v.1.15,2013-12-04 04:56:00,
2013-12-03 23:01:00,46.2,45.4,29.73,ESE,103,0.0,0.0,97,0.00,,,0.00,Wunderground v.1.15,2013-12-04 05:01:00,
2013-12-03 23:02:00,46.3,45.5,29.73,ESE,107,0.0,1.0,97,0.00,,,0.00,Wunderground v.1.15,2013-12-04 05:02:00,
2013-12-03 23:03:00,46.5,45.7,29.73,ESE,107,0.0,1.0,97,0.00,,,0.00,Wunderground v.1.15,2013-12-04 05:03:00,
2013-12-03 23:05:00,46.8,46.0,29.73,ESE,111,0.0,1.0,97,0.00,,,0.00,Wunderground v.1.15,2013-12-04 05:05:00,
2013-12-03 23:10:00,47.1,46.3,29.73,East,83,1.0,2.0,97,0.00,,,0.00,Wunderground v.1.15,2013-12-04 05:10:00,
2013-12-03 23:15:00,46.9,46.1,29.74,SSW,209,1.0,2.0,97,0.00,,,0.00,Wunderground v.1.15,2013-12-04 05:15:00,
2013-12-03 23:18:00,46.7,45.9,29.74,SE,146,0.0,2.0,97,0.00,,,0.00,Wunderground v.1.15,2013-12-04 05:18:00,
2013-12-03 23:23:00,46.6,45.8,29.74,SE,131,0.0,1.0,97,0.00,,,0.00,Wunderground v.1.15,2013-12-04 05:23:00,
2013-12-03 23:29:00,46.4,45.6,29.74,East,79,0.0,2.0,97,0.00,,,0.00,Wunderground v.1.15,2013-12-04 05:29:00,
2013-12-03 23:34:00,46.3,45.5,29.74,SE,136,0.0,1.0,97,0.00,,,0.00,Wunderground v.1.15,2013-12-04 05:34:00,
2013-12-03 23:39:00,46.2,45.4,29.74,SE,146,0.0,1.0,97,0.00,,,0.00,Wunderground v.1.15,2013-12-04 05:39:00,
2013-12-03 23:44:00,45.8,45.0,29.73,SE,146,0.0,0.0,97,0.00,,,0.00,Wunderground v.1.15,2013-12-04 05:44:00,
2013-12-03 23:49:00,45.4,44.3,29.73,SE,143,0.0,0.0,96,0.00,,,0.00,Wunderground v.1.15,2013-12-04 05:49:00,
2013-12-03 23:55:00,45.1,44.0,29.73,SE,144,0.0,0.0,96,0.00,,,0.00,Wunderground v.1.15,2013-12-04 05:55:00,